Weather reports worldwide

Advertisment
Marce, France (7228): temperature & dewpoint: 12.01.2020 12:00:00 - 18.01.2020 12:00:00 (CET)Marce, France (7228): wind speed & gusts: 12.01.2020 12:00:00 - 18.01.2020 12:00:00 (CET)Marce, France (7228): wind direction: 12.01.2020 12:00:00 - 18.01.2020 12:00:00 (CET)Marce, France (7228): reduced air pressure: 12.01.2020 12:00:00 - 18.01.2020 12:00:00 (CET)Marce, France (7228): visibility: 12.01.2020 12:00:00 - 18.01.2020 12:00:00 (CET)Marce, France (7228): precipitation: 12.01.2020 12:00:00 - 18.01.2020 12:00:00 (CET)
Date & Time tt [°C] td [°C] ff [km/h] ff [kn] fx [km/h] fx [kn] dd ppp [hPa] vv [km] rr [mm]
18.01.2020 12:00:00 7,8 3,6 4 2 9 5 ESE 1028,8 20 0,0
18.01.2020 11:00:00 5,7 2,7 3 2 8 4 SSE 1028,6 20 0,0
18.01.2020 10:00:00 1,8 1,5 5 3 7 4 E 1028,7 17 0,0
18.01.2020 09:00:00 -0,4 -0,7 5 3 8 4 ESE 1029,0 12 0,0
18.01.2020 08:00:00 -1,2 -1,9 2 1 7 4 ESE 1028,7 18 0,0
18.01.2020 07:00:00 -0,6 -1,2 0 0 3 2 N 1028,8 37 0,0
18.01.2020 06:00:00 -0,4 -1,0 2 1 5 3 SW 1028,9 17 0,0
18.01.2020 05:00:00 -0,5 -1,2 0 0 6 3 N 1028,8 20 0,0
18.01.2020 04:00:00 -0,3 -1,6 5 3 7 4 SSE 1028,8 19 0,0
18.01.2020 03:00:00 1,9 0,4 5 3 9 5 SW 1028,7 60 0,2
18.01.2020 02:00:00 2,4 0,6 4 2 14 8 SW 1028,5 60 0,0
18.01.2020 01:00:00 2,9 1,1 6 4 16 8 SSW 1028,4 60 0,0
18.01.2020 00:00:00 3,3 1,2 8 4 18 10 SSW 1028,1 60 0,0
17.01.2020 23:00:00 3,2 1,2 9 5 15 8 SW 1027,7 60 0,0
17.01.2020 22:00:00 4,4 1,9 11 6 20 11 WSW 1027,8 60 0,0
17.01.2020 21:00:00 4,9 2,3 13 7 20 11 SW 1027,0 60 0,0
17.01.2020 20:00:00 2,9 1,1 7 4 10 5 SW 1026,5 60 0,0
17.01.2020 19:00:00 3,7 0,4 7 4 25 14 SW 1025,9 60 0,0
17.01.2020 18:00:00 6,9 1,8 15 8 30 16 W 1025,2 60 0,0
17.01.2020 17:00:00 8,8 1,9 19 10 34 18 WSW 1024,1 58 0,0
17.01.2020 16:00:00 10,0 3,5 19 10 31 17 WSW 1023,1 53 0,0
17.01.2020 15:00:00 9,4 2,5 23 12 40 22 WSW 1022,4 58 0,0
17.01.2020 14:00:00 11,2 3,9 24 13 38 20 W 1022,2 60 0,0
17.01.2020 13:00:00 11,1 4,8 19 11 34 18 WSW 1022,0 20 0,0
17.01.2020 12:00:00 10,8 5,3 18 10 38 20 W 1021,5 20 0,0
17.01.2020 11:00:00 9,9 6,8 17 9 29 16 WSW 1020,5 18 0,0
17.01.2020 10:00:00 8,8 6,8 15 8 24 13 SW 1019,7 19 0,0
17.01.2020 09:00:00 8,7 7,3 13 7 26 14 SW 1018,8 19 0,0
17.01.2020 08:00:00 9,3 7,4 15 8 26 14 SW 1017,9 16 0,2
17.01.2020 07:00:00 9,5 7,8 14 8 29 16 SSW 1017,1 60 0,0
17.01.2020 06:00:00 9,9 8,8 16 9 28 15 SSW 1016,3 55 0,0
17.01.2020 05:00:00 9,7 8,6 18 10 36 20 S 1016,1 20 0,4
17.01.2020 04:00:00 9,6 8,7 21 11 34 18 S 1016,2 8 0,0
17.01.2020 03:00:00 9,7 8,8 18 10 34 18 S 1016,1 16 0,6
17.01.2020 02:00:00 9,9 8,8 22 12 34 18 S 1016,4 7 1,0
17.01.2020 01:00:00 10,2 8,8 21 11 48 26 S 1016,4 18 0,2
17.01.2020 00:00:00 11,8 7,9 28 15 49 26 SSW 1016,6 48 0,0
16.01.2020 23:00:00 12,1 6,6 17 9 32 17 S 1016,0 60 0,0
16.01.2020 22:00:00 11,0 5,9 12 7 28 15 SSE 1016,1 60 0,0
16.01.2020 21:00:00 10,9 5,8 18 10 37 20 SE 1016,1 60 0,0
16.01.2020 20:00:00 11,6 6,5 19 11 33 18 SSE 1016,2 60 0,0
16.01.2020 19:00:00 12,0 6,5 20 11 31 17 SSE 1016,4 60 0,0
16.01.2020 18:00:00 12,9 6,5 19 10 35 19 SSE 1016,9 60 0,0
16.01.2020 17:00:00 13,8 6,6 19 10 38 20 SSE 1016,7 52 0,0
16.01.2020 16:00:00 15,0 6,5 23 12 38 20 S 1017,2 60 0,0
16.01.2020 15:00:00 15,2 6,7 19 10 43 23 SSE 1017,9 51 0,0
16.01.2020 14:00:00 14,8 7,1 21 12 36 19 SSE 1018,5 60 0,0
16.01.2020 13:00:00 12,4 7,5 19 11 37 20 SSE 1019,7 54 0,0
16.01.2020 12:00:00 11,2 6,5 24 13 41 22 SSE 1020,7 34 0,0
16.01.2020 11:00:00 9,3 6,4 23 13 35 19 SSE 1021,3 29 0,0
16.01.2020 10:00:00 7,6 6,2 20 11 33 18 SSE 1021,6 18 0,0
16.01.2020 09:00:00 6,2 5,9 18 10 27 14 SE 1021,7 13 0,0
16.01.2020 08:00:00 6,2 6,1 17 9 30 16 SE 1022,0 3,4 0,0
16.01.2020 07:00:00 6,1 6,0 18 10 29 15 SE 1022,5 0,6 0,0
16.01.2020 06:00:00 5,8 5,7 13 7 24 13 SSE 1023,3 0,5 0,0
16.01.2020 05:00:00 5,8 5,7 16 9 25 14 SE 1023,3 1,1 0,0
16.01.2020 04:00:00 5,1 5,0 11 6 22 12 SE 1023,5 4,9 0,2
16.01.2020 03:00:00 3,5 3,4 12 6 14 8 ESE 1023,6 0,5 0,0
16.01.2020 02:00:00 2,5 2,2 3 1 9 5 E 1023,8 0,3 0,0
16.01.2020 01:00:00 2,7 2,4 5 3 12 7 SSE 1024,1 0,6 0,0
16.01.2020 00:00:00 3,7 3,4 5 3 10 5 SE 1024,2 6 0,0
15.01.2020 23:00:00 3,7 3,4 5 3 8 4 SSE 1023,9 5 0,0
15.01.2020 22:00:00 3,5 2,9 3 1 7 4 SE 1023,8 13 0,0
15.01.2020 21:00:00 4,8 4,1 3 2 14 7 SSE 1023,1 37 0,0
15.01.2020 20:00:00 4,7 3,2 6 3 10 6 S 1022,6 60 0,0
15.01.2020 19:00:00 6,5 4,5 5 3 14 7 SSW 1021,3 60 0,0
15.01.2020 18:00:00 9,1 6,0 10 5 23 13 WSW 1019,9 60 0,0
15.01.2020 17:00:00 11,7 7,4 14 8 27 14 WSW 1018,1 58 0,0
15.01.2020 16:00:00 12,7 8,8 14 7 39 21 SW 1016,6 60 0,0
15.01.2020 15:00:00 12,9 9,5 16 9 35 19 SSW 1015,2 19 0,0
15.01.2020 14:00:00 12,9 9,2 25 14 42 23 SSW 1014,3 20 0,0
15.01.2020 13:00:00 11,6 7,5 25 13 42 23 S 1013,3 19 0,0
15.01.2020 12:00:00 11,2 6,1 23 13 41 22 S 1013,0 52 0,0
15.01.2020 11:00:00 10,4 5,4 25 13 41 22 S 1012,8 60 0,0
15.01.2020 10:00:00 10,1 4,9 24 13 45 24 S 1011,4 60 0,0
15.01.2020 09:00:00 9,8 4,8 24 13 43 23 S 1010,5 60 0,0
15.01.2020 08:00:00 9,5 4,5 26 14 48 26 S 1010,5 60 0,0
15.01.2020 07:00:00 9,2 4,4 23 13 40 21 S 1010,6 60 0,0
15.01.2020 06:00:00 9,0 4,4 24 13 46 25 S 1010,5 60 0,0
15.01.2020 05:00:00 9,1 4,3 24 13 44 24 S 1010,8 60 0,0
15.01.2020 04:00:00 9,1 4,3 21 12 38 21 S 1010,8 60 0,0
15.01.2020 03:00:00 9,0 4,2 22 12 39 21 S 1011,2 60 0,0
15.01.2020 02:00:00 9,0 4,6 21 12 41 22 S 1011,3 59 0,0
15.01.2020 01:00:00 9,2 5,0 20 11 36 19 S 1011,7 59 0,0
15.01.2020 00:00:00 9,3 5,7 19 10 38 21 S 1011,8 53 0,0
14.01.2020 23:00:00 9,2 5,9 19 11 31 17 S 1012,1 53 0,0
14.01.2020 22:00:00 8,9 6,2 16 9 35 19 S 1012,3 51 0,0
14.01.2020 21:00:00 9,1 7,0 19 11 35 19 S 1012,2 51 0,0
14.01.2020 20:00:00 9,7 8,5 18 10 34 18 SSE 1012,2 13 1,2
14.01.2020 19:00:00 9,9 8,0 22 12 39 21 S 1012,5 19 0,2
14.01.2020 18:00:00 10,2 7,6 20 11 46 25 S 1011,9 33 0,0
14.01.2020 17:00:00 10,7 7,4 27 14 49 26 S 1011,5 60 0,0
14.01.2020 16:00:00 10,8 7,3 26 14 56 30 S 1011,1 60 0,0
14.01.2020 15:00:00 11,5 8,0 33 18 51 27 SSW 1010,7 59 0,0
14.01.2020 14:00:00 10,6 8,0 25 13 54 29 SSW 1010,9 44 0,0
14.01.2020 13:00:00 10,0 7,8 32 17 58 31 S 1010,9 20 0,0
14.01.2020 12:00:00 9,5 7,9 33 18 58 32 S 1011,2 17 0,2
14.01.2020 11:00:00 9,5 8,4 32 18 55 30 S 1010,7 13 0,2
14.01.2020 10:00:00 8,6 7,5 29 16 56 31 S 1010,2 20 0,2
14.01.2020 09:00:00 8,6 7,5 34 18 54 29 S 1009,8 14 0,4
14.01.2020 08:00:00 8,8 7,9 27 15 54 29 S 1009,7 11 0,6
14.01.2020 07:00:00 8,9 8,1 28 15 51 28 S 1009,3 5 0,4
14.01.2020 06:00:00 9,2 8,0 26 14 50 27 S 1009,1 12 0,4
14.01.2020 05:00:00 9,8 7,9 31 17 56 30 S 1008,9 13 0,4
14.01.2020 04:00:00 8,3 5,9 26 14 45 24 S 1009,3 12 0,6
14.01.2020 03:00:00 9,2 5,7 28 15 51 28 S 1009,6 26 0,0
14.01.2020 02:00:00 9,1 5,6 29 16 45 24 S 1009,9 40 0,0
14.01.2020 01:00:00 9,2 5,2 27 15 46 25 S 1010,2 59 0,0
14.01.2020 00:00:00 8,9 5,3 25 14 49 27 S 1010,6 57 0,0
13.01.2020 23:00:00 9,2 5,2 26 14 44 24 S 1010,8 60 0,0
13.01.2020 22:00:00 9,5 5,1 24 13 40 22 S 1011,6 60 0,0
13.01.2020 21:00:00 9,6 5,2 24 13 41 22 S 1011,7 60 0,0
13.01.2020 20:00:00 9,5 6,0 23 12 44 24 S 1012,5 59 0,0
13.01.2020 19:00:00 9,4 6,3 15 8 45 24 S 1012,3 60 0,0
13.01.2020 18:00:00 9,9 6,4 22 12 44 24 S 1013,0 60 0,0
13.01.2020 17:00:00 10,7 7,0 21 11 35 19 S 1013,6 60 0,0
13.01.2020 16:00:00 10,5 7,0 23 13 41 22 S 1014,3 59 0,0
13.01.2020 15:00:00 11,0 7,7 23 13 39 21 S 1015,2 51 0,0
13.01.2020 14:00:00 10,6 7,8 25 14 41 22 S 1015,9 59 0,0
13.01.2020 13:00:00 10,2 8,0 20 11 45 25 S 1017,2 55 0,0
13.01.2020 12:00:00 9,8 8,4 25 14 44 24 S 1018,3 20 0,0
13.01.2020 11:00:00 9,9 9,0 22 12 34 18 S 1019,3 44 0,2
13.01.2020 10:00:00 9,2 8,6 19 10 29 16 S 1019,4 12 0,0
13.01.2020 09:00:00 8,5 8,1 16 9 29 16 SSE 1019,9 6 0,2
13.01.2020 08:00:00 8,4 8,1 16 9 24 13 SSE 1020,4 17 0,0
13.01.2020 07:00:00 8,4 8,1 13 7 21 11 SSE 1021,2 2,5 0,2
13.01.2020 06:00:00 8,5 8,2 12 6 25 14 SSE 1022,2 2,6 0,0
13.01.2020 05:00:00 8,6 8,3 13 7 22 12 SSE 1022,9 4,0 0,6
13.01.2020 04:00:00 8,5 8,2 10 5 17 9 S 1023,8 8 0,0
13.01.2020 03:00:00 8,5 8,4 6 3 9 5 SSE 1024,4 0,8 0,0
13.01.2020 02:00:00 8,4 8,3 8 4 16 9 SSW 1025,3 0,7 0,0
13.01.2020 01:00:00 8,0 7,9 10 6 16 9 S 1025,9 0,4 0,0
13.01.2020 00:00:00 7,2 7,1 7 4 11 6 S 1026,5 0,2 0,2
12.01.2020 23:00:00 7,5 7,4 4 2 14 7 S 1026,7 0,2 0,0
12.01.2020 22:00:00 7,1 6,8 6 4 14 8 S 1026,9 0,9 0,0
12.01.2020 21:00:00 6,7 6,3 6 3 17 9 S 1027,2 3,1 0,0
12.01.2020 20:00:00 7,3 6,9 10 5 18 10 S 1027,5 5 0,0
12.01.2020 19:00:00 7,9 7,5 10 6 16 8 S 1027,3 7 0,0
12.01.2020 18:00:00 9,0 8,4 13 7 19 11 S 1027,0 20 0,0
12.01.2020 17:00:00 10,4 9,2 16 8 23 12 S 1026,7 20 0,0
12.01.2020 16:00:00 11,0 10,1 16 9 23 12 SSW 1026,5 46 0,0
12.01.2020 15:00:00 10,8 10,2 12 6 26 14 SW 1026,6 6 0,2
12.01.2020 14:00:00 9,7 8,8 8 4 16 9 SSE 1026,8 13 0,0
12.01.2020 13:00:00 9,8 7,6 11 6 20 11 S 1027,6 10 0,0
12.01.2020 12:00:00 8,7 6,3 13 7 23 12 S 1028,2 18 0,0

tt = temperature
td = dewpoint
ff = wind speed
fx = gusts
dd = wind direction
ppp = reduced air pressure
vv = visibility
rr = precipitation

Next stations